$Date,$Time,DM0201B,DM0203B,DM0205B,DM0207B,DM0209B
09/08/98,00:00:01,6,150,-27,38,985
09/08/98,00:05:01,6,150,-27,40,985
09/08/98,00:10:01,6,150,-27,42,985
09/08/98,00:15:01,6,150,-27,42,985
09/08/98,00:20:01,6,150,-27,42,985
09/08/98,00:25:01,6,150,-27,44,985
09/08/98,00:30:01,6,150,-27,44,985
09/08/98,00:35:01,6,150,-27,46,985
09/08/98,00:40:01,6,150,-27,46,985
09/08/98,00:45:01,6,150,-27,48,985
09/08/98,00:50:01,6,150,-27,48,985
09/08/98,00:55:01,6,150,-27,48,985
09/08/98,01:00:01,6,213,-27,50,985
09/08/98,01:05:01,6,213,-27,50,985
09/08/98,01:10:01,6,213,-27,50,985
09/08/98,01:15:01,6,213,-27,50,985
09/08/98,01:20:01,6,213,-27,50,985
09/08/98,01:25:01,6,213,-27,50,985
09/08/98,01:30:01,6,213,-27,50,985
09/08/98,01:35:01,6,224,-27,48,985
09/08/98,01:40:01,6,224,-27,48,985
09/08/98,01:45:01,6,224,-27,48,985
09/08/98,01:50:01,6,281,-27,48,985
09/08/98,01:55:01,6,314,-27,46,985
09/08/98,02:00:01,6,314,-27,46,985
09/08/98,02:05:01,6,314,-27,44,985
09/08/98,02:10:01,6,314,-27,44,985
09/08/98,02:15:01,6,314,-27,42,985
09/08/98,02:20:01,6,314,-27,42,985
09/08/98,02:25:01,6,314,-27,42,985
09/08/98,02:30:01,6,314,-27,40,985
09/08/98,02:35:01,6,324,-27,38,985
09/08/98,02:40:01,6,336,-27,36,985
09/08/98,02:45:01,16,1,-27,36,985
09/08/98,02:50:01,16,1,-27,34,985
09/08/98,02:55:01,27,1,-27,32,985
09/08/98,03:00:01,3,43,-27,30,985
09/08/98,03:05:01,3,43,-28,30,985
09/08/98,03:10:01,14,43,-27,28,985
09/08/98,03:15:01,24,23,-27,28,985
09/08/98,03:20:01,24,23,-28,26,985
09/08/98,03:25:01,35,23,-28,26,985
09/08/98,03:30:01,24,23,-28,24,985
09/08/98,03:35:01,34,23,-28,22,985
09/08/98,03:40:01,34,23,-28,22,985
09/08/98,03:45:01,34,23,-28,20,985
09/08/98,03:50:01,13,33,-28,20,985
09/08/98,03:55:01,13,33,-28,18,985
09/08/98,04:00:01,3,33,-28,18,985
09/08/98,04:05:01,3,33,-28,16,985
09/08/98,04:10:01,3,29,-28,16,985
09/08/98,04:15:01,3,29,-28,14,985
09/08/98,04:20:01,3,29,-28,14,985
09/08/98,04:25:01,3,29,-28,12,985
09/08/98,04:30:01,3,29,-28,12,985
09/08/98,04:35:01,13,19,-29,10,985
09/08/98,04:40:01,13,19,-29,10,985
09/08/98,04:45:01,34,197,-29,10,985
09/08/98,04:50:01,24,197,-29,8,985
09/08/98,04:55:01,14,197,-29,6,985
09/08/98,05:00:01,4,197,-29,6,985
09/08/98,05:05:01,14,234,-29,6,985
09/08/98,05:10:01,15,211,-29,4,985
09/08/98,05:15:01,5,259,-29,4,985
09/08/98,05:20:01,5,259,-29,4,985
09/08/98,05:25:01,5,232,-29,2,985
09/08/98,05:30:01,5,219,-29,2,985
09/08/98,05:35:01,17,290,-29,2,985
09/08/98,05:40:01,6,290,-29,0,985
09/08/98,05:45:01,10,300,-29,0,985
09/08/98,05:50:01,10,300,-29,0,985
09/08/98,05:55:01,10,300,-29,0,985
09/08/98,06:00:01,10,300,-29,0,985
09/08/98,06:05:01,0,300,-29,0,985
09/08/98,06:10:01,0,300,-29,0,985
09/08/98,06:15:01,0,300,-29,0,985
09/08/98,06:20:01,0,286,-29,0,985
09/08/98,06:25:01,0,286,-29,0,985
09/08/98,06:30:01,0,286,-29,0,985
09/08/98,06:35:01,11,286,-29,0,985
09/08/98,06:40:01,11,286,-29,0,985
09/08/98,06:45:01,11,286,-29,0,985
09/08/98,06:50:01,14,286,-29,0,985
09/08/98,06:55:01,4,286,-29,0,985
09/08/98,07:00:01,4,286,-29,0,985
09/08/98,07:05:01,4,286,-29,0,985
09/08/98,07:10:01,4,286,-29,0,985
09/08/98,07:15:01,4,286,-29,0,985
09/08/98,07:20:01,4,286,-29,0,985
09/08/98,07:25:01,4,275,-29,0,985
09/08/98,07:30:01,4,264,-29,0,985
09/08/98,07:35:01,4,264,-29,0,985
09/08/98,07:40:01,14,264,-29,0,985
09/08/98,07:45:01,14,254,-29,0,985
09/08/98,07:50:01,1,254,-29,0,985
09/08/98,07:55:01,1,196,-29,0,985
09/08/98,08:00:01,12,182,-29,0,985
09/08/98,08:05:01,2,182,-29,0,985
09/08/98,08:10:01,2,182,-29,0,985
09/08/98,08:15:01,22,154,-30,0,985
09/08/98,08:20:01,2,154,-30,0,985
09/08/98,08:25:01,2,154,-30,0,985
09/08/98,08:30:01,2,133,-30,0,985
09/08/98,08:35:01,2,133,-30,0,985
09/08/98,08:40:01,2,133,-30,0,985
09/08/98,08:45:01,2,133,-30,0,985
09/08/98,08:50:01,0,16,-30,0,985
09/08/98,08:55:01,0,16,-31,0,985
09/08/98,09:00:01,0,16,-31,0,985
09/08/98,09:05:01,0,42,-30,0,985
09/08/98,09:10:01,11,62,-30,0,985
09/08/98,09:15:01,20,62,-30,0,985
09/08/98,09:20:01,0,74,-30,0,985
09/08/98,09:25:01,0,74,-30,0,985
09/08/98,09:30:01,1,74,-30,0,985
09/08/98,09:35:01,1,74,-31,0,985
09/08/98,09:40:01,12,87,-31,0,985
09/08/98,09:45:01,14,87,-31,0,985
09/08/98,09:50:01,4,87,-31,0,985
09/08/98,09:55:01,4,87,-31,0,985
09/08/98,10:00:01,4,87,-31,0,985
09/08/98,10:05:01,4,97,-31,0,985
09/08/98,10:10:01,14,132,-31,0,985
09/08/98,10:15:01,2,132,-31,0,985
09/08/98,10:20:01,0,1,-31,0,985
09/08/98,10:25:01,3,359,-31,0,985
09/08/98,10:30:01,3,1,-31,0,985
09/08/98,10:35:01,11,38,-31,0,985
09/08/98,10:40:01,17,38,-31,0,985
09/08/98,10:45:01,11,38,-31,0,985
09/08/98,10:50:01,12,28,-31,0,985
09/08/98,10:55:01,1,41,-31,0,985
09/08/98,11:00:01,1,41,-31,0,985
09/08/98,11:05:01,7,32,-31,0,985
09/08/98,11:10:01,26,25,-31,0,985
09/08/98,11:15:01,14,42,-31,0,985
09/08/98,11:20:01,19,22,-31,0,985
09/08/98,11:25:01,8,12,-31,0,985
09/08/98,11:30:01,8,12,-31,0,985
09/08/98,11:35:01,31,12,-31,0,983
09/08/98,11:40:01,8,12,-31,0,983
09/08/98,11:45:01,8,12,-31,0,983
09/08/98,11:50:01,8,12,-31,0,983
09/08/98,11:55:01,8,66,-31,0,983
09/08/98,12:00:01,21,155,-31,0,983
09/08/98,12:05:01,31,155,-31,0,983
09/08/98,12:10:01,31,155,-30,0,983
09/08/98,12:15:01,22,167,-30,0,983
09/08/98,12:20:01,23,167,-30,0,983
09/08/98,12:25:01,34,167,-30,0,983
09/08/98,12:30:01,19,167,-30,0,983
09/08/98,12:35:01,31,167,-30,0,983
09/08/98,12:40:01,44,167,-30,0,983
09/08/98,12:45:01,57,167,-30,0,983
09/08/98,12:50:01,41,167,-30,0,983
09/08/98,12:55:01,60,167,-30,0,983
09/08/98,13:00:01,60,167,-30,0,983
09/08/98,13:05:01,27,167,-30,0,983
09/08/98,13:10:01,21,143,-30,0,983
09/08/98,13:15:01,21,154,-30,0,983
09/08/98,13:20:01,42,176,-30,0,983
09/08/98,13:25:01,42,176,-30,0,983
09/08/98,13:30:01,53,187,-30,0,983
09/08/98,13:35:01,32,187,-30,0,983
09/08/98,13:40:01,31,187,-30,0,983
09/08/98,13:45:01,47,187,-30,0,983
09/08/98,13:50:01,47,187,-30,0,983
09/08/98,13:55:01,44,187,-30,0,983
09/08/98,14:00:01,9,187,-30,0,983
09/08/98,14:05:01,16,197,-30,0,983
09/08/98,14:10:01,27,197,-30,0,983
09/08/98,14:15:01,47,197,-30,0,983
09/08/98,14:20:01,37,197,-30,0,983
09/08/98,14:25:01,21,197,-30,0,983
09/08/98,14:30:01,20,197,-31,0,983
09/08/98,14:35:01,20,197,-31,0,983
09/08/98,14:40:01,30,197,-31,0,983
09/08/98,14:45:01,45,197,-31,0,983
09/08/98,14:50:01,45,176,-31,0,983
09/08/98,14:55:01,34,165,-31,0,983
09/08/98,15:00:01,54,165,-31,0,983
09/08/98,15:05:01,65,165,-31,0,983
09/08/98,15:10:01,30,153,-31,0,983
09/08/98,15:15:01,6,162,-31,0,983
09/08/98,15:20:01,9,162,-31,0,983
09/08/98,15:25:01,9,162,-31,0,983
09/08/98,15:30:01,9,321,-31,0,983
09/08/98,15:35:01,19,331,-31,0,983
09/08/98,15:40:01,19,331,-31,0,983
09/08/98,15:45:01,8,264,-31,0,983
09/08/98,15:50:01,8,264,-31,0,983
09/08/98,15:55:01,8,198,-31,0,983
09/08/98,16:00:01,8,198,-31,0,983
09/08/98,16:05:01,18,198,-31,0,983
09/08/98,16:10:01,6,45,-31,0,983
09/08/98,16:15:01,6,45,-31,0,983
09/08/98,16:20:01,6,45,-31,0,983
09/08/98,16:25:01,6,45,-31,0,983
09/08/98,16:30:01,6,35,-31,0,983
09/08/98,16:35:01,6,35,-31,0,983
09/08/98,16:40:01,6,35,-31,0,983
09/08/98,16:45:01,6,16,-31,0,983
09/08/98,16:50:01,38,5,-31,0,983
09/08/98,16:55:01,9,356,-31,0,983
09/08/98,17:00:01,9,93,-31,0,983
09/08/98,17:05:01,9,59,-31,0,981
09/08/98,17:10:01,9,59,-31,0,981
09/08/98,17:15:01,9,59,-31,0,981
09/08/98,17:20:01,9,59,-31,0,981
09/08/98,17:25:01,9,31,-31,0,981
09/08/98,17:30:01,9,31,-31,0,981
09/08/98,17:35:01,9,31,-31,0,981
09/08/98,17:40:01,9,31,-31,0,981
09/08/98,17:45:01,9,63,-31,0,981
09/08/98,17:50:01,6,1,-31,0,981
09/08/98,17:55:01,6,1,-31,0,981
09/08/98,18:00:01,6,68,-31,0,981
09/08/98,18:05:01,6,69,-31,0,981
09/08/98,18:10:01,6,80,-31,0,981
09/08/98,18:15:01,6,133,-31,0,981
09/08/98,18:20:01,6,143,-31,0,981
09/08/98,18:25:01,5,143,-31,0,981
09/08/98,18:30:01,5,124,-31,0,981
09/08/98,18:35:01,5,109,-31,0,981
09/08/98,18:40:01,23,141,-31,0,981
09/08/98,18:45:01,23,152,-31,0,981
09/08/98,18:50:01,35,152,-31,0,981
09/08/98,18:55:01,25,162,-31,0,981
09/08/98,19:00:01,35,162,-31,0,981
09/08/98,19:05:01,13,162,-31,0,981
09/08/98,19:10:01,23,162,-31,0,981
09/08/98,19:15:01,23,162,-31,0,981
09/08/98,19:20:01,12,162,-31,0,981
09/08/98,19:25:01,12,162,-31,0,981
09/08/98,19:30:01,2,162,-31,0,981
09/08/98,19:35:01,12,172,-31,0,981
09/08/98,19:40:01,13,172,-31,0,981
09/08/98,19:45:01,24,182,-31,0,981
09/08/98,19:50:01,24,182,-31,0,981
09/08/98,19:55:01,25,182,-31,0,981
09/08/98,20:00:01,4,182,-31,0,981
09/08/98,20:05:01,45,182,-31,0,981
09/08/98,20:10:01,49,182,-31,0,981
09/08/98,20:15:01,49,182,-31,0,981
09/08/98,20:20:01,45,182,-31,0,981
09/08/98,20:25:01,3,182,-31,0,981
09/08/98,20:30:01,48,182,-31,2,981
09/08/98,20:35:01,10,182,-31,2,981
09/08/98,20:40:01,10,182,-31,4,981
09/08/98,20:45:01,10,182,-31,4,981
09/08/98,20:50:01,53,182,-31,6,981
09/08/98,20:55:01,13,182,-31,8,981
09/08/98,21:00:01,39,182,-31,8,981
09/08/98,21:05:01,8,182,-31,10,981
09/08/98,21:10:01,8,182,-31,10,981
09/08/98,21:15:01,26,182,-31,12,981
09/08/98,21:20:01,26,182,-31,12,981
09/08/98,21:25:01,49,182,-31,14,981
09/08/98,21:30:01,43,172,-31,16,981
09/08/98,21:35:01,41,172,-31,18,981
09/08/98,21:40:01,27,172,-31,20,981
09/08/98,21:45:01,39,172,-31,20,981
09/08/98,21:50:01,26,182,-31,20,981
09/08/98,21:55:01,14,182,-31,20,981
09/08/98,22:00:01,14,182,-31,22,981
09/08/98,22:05:01,26,182,-31,24,981
09/08/98,22:10:01,19,182,-31,24,981
09/08/98,22:15:01,6,172,-31,26,981
09/08/98,22:20:01,10,172,-31,26,981
09/08/98,22:25:01,26,161,-31,28,981
09/08/98,22:30:01,6,161,-31,28,981
09/08/98,22:35:01,28,161,-31,28,981
09/08/98,22:40:01,7,161,-31,30,981
09/08/98,22:45:01,24,162,-31,30,981
09/08/98,22:50:01,30,172,-31,30,981
09/08/98,22:55:01,43,172,-31,32,981
09/08/98,23:00:01,16,172,-31,32,981
09/08/98,23:05:01,34,158,-31,34,981
09/08/98,23:10:01,22,161,-31,34,981
09/08/98,23:15:01,54,168,-30,36,981
09/08/98,23:20:01,53,168,-30,38,981
09/08/98,23:25:01,57,168,-30,38,981
09/08/98,23:30:01,39,168,-30,40,981
09/08/98,23:35:01,24,148,-30,42,981
09/08/98,23:40:01,24,131,-30,42,981
09/08/98,23:45:01,14,133,-30,44,981
09/08/98,23:50:01,23,143,-29,46,981
09/08/98,23:55:01,12,124,-30,48,981
09/09/98,00:00:01,23,124,-30,48,981
